Total_Precipitation_Accumulation
0.81 0.81 0.71 0.68 0.68 0.68 0.65 0.68 0.76 0.85 0.95 1.01 1.06 1.11 1.15 1.24 1.30 1.41 1.56 1.70 1.73 1.74 1.65 1.68 1.80 1.86 2.02 2.06 2.01 1.96 1.94 1.86 1.70 1.61 1.38 1.16 1.14 1.22 1.28 1.20 1.24 1.24 1.06
0.87 0.81 0.72 0.72 0.75 0.80 0.78 0.70 0.71 0.77 0.79 0.90 1.04 1.04 1.05 1.10 1.18 1.29 1.39 1.45 1.54 1.51 1.43 1.45 1.56 1.63 1.77 1.89 1.99 1.90 1.90 1.85 1.83 1.76 1.55 1.33 1.24 1.25 1.30 1.27 1.19 1.18 1.16
0.88 0.86 0.77 0.67 0.70 0.75 0.76 0.68 0.66 0.70 0.74 0.88 1.02 1.14 1.07 0.97 1.06 1.17 1.22 1.25 1.26 1.22 1.21 1.23 1.29 1.37 1.50 1.62 1.73 1.82 1.83 1.76 1.85 1.84 1.63 1.39 1.26 1.24 1.28 1.26 1.23 1.30 1.20
0.92 0.86 0.83 0.77 0.79 0.74 0.64 0.62 0.64 0.63 0.61 0.68 0.83 0.94 0.99 0.95 0.91 0.92 0.97 1.12 1.12 1.04 0.96 0.96 0.98 1.01 1.14 1.28 1.39 1.54 1.70 1.82 1.90 1.91 1.76 1.48 1.30 1.28 1.31 1.37 1.37 1.31 1.32
0.99 0.94 0.86 0.81 0.71 0.64 0.58 0.51 0.52 0.48 0.48 0.54 0.70 0.88 0.94 0.94 0.98 0.97 0.90 0.93 0.99 1.01 0.95 0.87 0.80 0.79 0.87 0.97 1.08 1.34 1.54 1.69 1.83 1.89 1.81 1.64 1.46 1.38 1.32 1.32 1.42 1.51 1.51
0.80 0.82 0.83 0.79 0.63 0.55 0.48 0.42 0.40 0.41 0.42 0.45 0.53 0.69 0.86 0.84 0.99 1.04 0.98 0.90 0.90 0.90 0.90 0.90 0.89 0.84 0.73 0.69 0.75 0.92 1.14 1.36 1.54 1.65 1.69 1.58 1.43 1.39 1.43 1.44 1.42 1.48 1.55
0.62 0.65 0.68 0.64 0.50 0.45 0.36 0.32 0.34 0.36 0.38 0.41 0.47 0.59 0.74 0.89 0.92 0.83 0.92 0.93 0.89 0.90 0.87 0.87 0.91 0.90 0.94 0.84 0.77 0.75 0.78 0.95 1.20 1.40 1.43 1.41 1.48 1.41 1.37 1.34 1.31 1.30 1.30
0.47 0.50 0.49 0.49 0.44 0.37 0.29 0.29 0.30 0.34 0.37 0.39 0.43 0.49 0.57 0.76 0.81 0.72 0.90 0.94 0.95 0.94 0.92 0.94 0.98 1.02 0.99 1.09 1.06 0.97 0.90 0.89 0.98 0.93 1.03 1.30 1.41 1.42 1.43 1.44 1.46 1.38 1.32
0.32 0.38 0.41 0.41 0.38 0.32 0.28 0.34 0.40 0.40 0.39 0.38 0.39 0.41 0.44 0.53 0.62 0.60 0.74 0.88 0.98 0.97 0.88 0.89 0.95 0.99 1.18 1.21 1.12 1.11 1.04 0.98 1.11 1.12 1.13 1.18 1.24 1.26 1.28 1.36 1.43 1.38 1.33
0.20 0.25 0.29 0.32 0.36 0.39 0.47 0.55 0.56 0.52 0.46 0.42 0.39 0.38 0.40 0.43 0.56 0.45 0.57 0.74 0.91 1.00 0.94 0.91 1.06 1.03 1.04 1.00 0.96 1.15 1.13 1.03 0.94 0.91 0.92 0.96 0.98 1.04 1.11 1.14 1.28 1.29 1.22
0.04 0.10 0.19 0.30 0.36 0.45 0.57 0.59 0.58 0.53 0.44 0.40 0.38 0.36 0.36 0.45 0.60 0.54 0.61 0.71 0.83 0.92 0.95 0.97 0.95 1.03 0.86 0.81 0.86 1.01 1.15 1.09 1.05 1.07 1.01 0.95 0.92 0.93 0.89 0.95 1.09 1.17 1.18
0.03 0.08 0.13 0.21 0.30 0.43 0.52 0.51 0.50 0.49 0.46 0.42 0.43 0.40 0.42 0.53 0.60 0.61 0.61 0.66 0.74 0.81 0.84 0.76 0.75 0.83 0.69 0.64 0.62 0.76 0.93 0.95 0.96 1.04 1.02 0.95 0.89 0.86 0.84 0.84 0.92 1.00 1.02
0.01 0.03 0.06 0.12 0.23 0.37 0.40 0.40 0.43 0.45 0.44 0.43 0.42 0.40 0.39 0.47 0.57 0.67 0.57 0.50 0.49 0.57 0.64 0.63 0.56 0.53 0.53 0.49 0.52 0.62 0.68 0.82 0.96 0.99 0.89 0.83 0.83 0.86 0.87 0.84 0.81 0.84 0.87
0.00 0.01 0.01 0.02 0.05 0.11 0.16 0.20 0.26 0.32 0.33 0.32 0.35 0.39 0.42 0.42 0.43 0.48 0.51 0.48 0.42 0.42 0.42 0.36 0.35 0.38 0.44 0.46 0.47 0.49 0.55 0.76 0.94 0.93 0.85 0.79 0.81 0.84 0.90 0.92 0.89 0.83 0.83
0.00 0.00 0.01 0.02 0.04 0.04 0.07 0.10 0.13 0.16 0.19 0.25 0.31 0.34 0.35 0.39 0.39 0.42 0.44 0.44 0.49 0.53 0.55 0.47 0.40 0.39 0.40 0.44 0.47 0.52 0.64 0.75 0.85 0.80 0.80 0.77 0.78 0.84 0.88 0.92 0.97 0.94 0.87
0.00 0.00 0.00 0.01 0.02 0.02 0.03 0.04 0.06 0.07 0.10 0.12 0.15 0.18 0.19 0.25 0.32 0.35 0.38 0.40 0.43 0.49 0.54 0.55 0.54 0.56 0.56 0.55 0.53 0.50 0.51 0.60 0.67 0.73 0.74 0.74 0.74 0.74 0.74 0.78 0.85 0.89 0.88
0.00 0.00 0.00 0.01 0.01 0.02 0.04 0.06 0.05 0.04 0.03 0.03 0.05 0.09 0.11 0.12 0.15 0.21 0.28 0.34 0.36 0.41 0.46 0.48 0.49 0.50 0.51 0.49 0.47 0.45 0.43 0.43 0.50 0.59 0.70 0.76 0.78 0.77 0.76 0.71 0.69 0.71 0.70
0.01 0.00 0.01 0.05 0.07 0.05 0.05 0.09 0.12 0.13 0.10 0.04 0.03 0.04 0.05 0.06 0.05 0.07 0.10 0.17 0.19 0.23 0.29 0.34 0.35 0.35 0.36 0.37 0.35 0.33 0.33 0.36 0.38 0.41 0.50 0.63 0.78 0.87 0.87 0.83 0.76 0.72 0.71
0.00 0.01 0.03 0.07 0.07 0.08 0.11 0.13 0.13 0.13 0.12 0.08 0.05 0.03 0.03 0.03 0.03 0.04 0.05 0.08 0.09 0.10 0.13 0.16 0.17 0.19 0.23 0.24 0.25 0.25 0.26 0.29 0.33 0.36 0.38 0.43 0.53 0.68 0.78 0.83 0.86 0.91 0.87
0.01 0.01 0.02 0.04 0.05 0.07 0.08 0.10 0.09 0.09 0.08 0.06 0.05 0.04 0.04 0.05 0.05 0.04 0.04 0.06 0.07 0.07 0.08 0.11 0.12 0.12 0.16 0.18 0.19 0.20 0.22 0.24 0.27 0.30 0.33 0.36 0.42 0.49 0.58 0.66 0.70 0.73 0.78
0.01 0.01 0.01 0.02 0.04 0.04 0.04 0.04 0.06 0.06 0.05 0.04 0.03 0.03 0.04 0.08 0.08 0.07 0.07 0.07 0.08 0.09 0.09 0.10 0.12 0.13 0.15 0.19 0.26 0.29 0.27 0.26 0.28 0.32 0.35 0.37 0.39 0.43 0.47 0.53 0.58 0.61 0.63
0.02 0.02 0.02 0.04 0.06 0.05 0.04 0.05 0.05 0.06 0.06 0.05 0.05 0.04 0.05 0.08 0.09 0.09 0.08 0.08 0.09 0.09 0.10 0.12 0.13 0.14 0.17 0.20 0.26 0.34 0.37 0.34 0.32 0.33 0.37 0.40 0.42 0.44 0.45 0.48 0.52 0.55 0.55
0.03 0.03 0.03 0.05 0.06 0.05 0.06 0.06 0.07 0.07 0.07 0.07 0.08 0.08 0.08 0.09 0.09 0.09 0.09 0.11 0.12 0.13 0.14 0.14 0.15 0.16 0.18 0.21 0.24 0.27 0.29 0.33 0.37 0.39 0.41 0.43 0.47 0.49 0.49 0.48 0.49 0.53 0.55
0.04 0.05 0.05 0.06 0.07 0.08 0.08 0.08 0.08 0.07 0.07 0.08 0.09 0.11 0.12 0.12 0.11 0.11 0.11 0.13 0.14 0.15 0.17 0.18 0.18 0.18 0.19 0.21 0.23 0.25 0.27 0.30 0.30 0.31 0.36 0.42 0.45 0.49 0.51 0.51 0.50 0.50 0.54
0.05 0.05 0.06 0.07 0.08 0.09 0.10 0.11 0.12 0.11 0.11 0.11 0.12 0.13 0.14 0.14 0.14 0.13 0.13 0.14 0.15 0.16 0.17 0.17 0.17 0.20 0.24 0.24 0.25 0.28 0.38 0.40 0.36 0.34 0.36 0.41 0.45 0.48 0.53 0.57 0.60 0.61 0.61
0.08 0.08 0.08 0.09 0.09 0.10 0.12 0.15 0.16 0.15 0.15 0.13 0.14 0.15 0.16 0.16 0.16 0.16 0.15 0.16 0.17 0.18 0.19 0.20 0.22 0.23 0.26 0.28 0.29 0.32 0.38 0.36 0.36 0.40 0.40 0.41 0.44 0.48 0.53 0.58 0.60 0.64 0.69